Volver al catálogo

DELTA 1 DEB

ActivoLEO
NORAD 2518·DEBRIS·🇺🇸 United States

Lanzado Oct 2, 1966 desde Vandenberg Space Force Base

Loading…

Próximos Pases (próximas 24 horas)

TLE

ActualizadoSource: Space-Track

Época: Sep 14, 2026, 03:31 UTC

1 02518U 66087C   26257.14707640 -.00000020  00000-0  13181-3 0  9994
2 02518 100.8495 337.1097 0080928  27.5702   1.4955 12.42705200718479

Sigue DELTA 1 DEB en tiempo real con AllMySat

Download on the App Store